Detroit, MI

10:42 PM EDT on September 20, 2017 (GMT -0400)
Detroit City

Weather History for KDET - March, 2013

Change the Weather History Date:

Saturday, March 16, 2013

  Actual Average Record
Temperature  
Mean Temperature 29 °F -  
Max Temperature 32 °F 44 °F 70 °F (2012)
Min Temperature 26 °F 28 °F 12 °F (2014)
Degree Days  
Heating Degree Days 36    
Moisture  
Dew Point 28 °F    
Average Humidity 94    
Maximum Humidity 100    
Minimum Humidity 84    
Precipitation  
Precipitation 0.10 in - - ()
Sea Level Pressure  
Sea Level Pressure 29.85 in    
Wind  
Wind Speed 8 mph (NE)    
Max Wind Speed 13 mph    
Max Gust Speed 18 mph    
Visibility 5 miles    
Events Snow    
Averages and records for this station are not official NWS values.
T = Trace of Precipitation, MM = Missing Value Source: NWS Daily Summary

Daily Weather History Graph

Daily Weather History Graph

Search for Another Location

Airport or City:

Trip Planner

Search our weather history database for the weather conditions in past years. The results will help you decide how hot, cold, wet, or windy it might be!

Date:

Astronomy

Mar. 16, 2013 Rise Set
Actual Time 7:41 AM EDT 7:39 PM EDT
Civil Twilight 7:13 AM EDT 8:07 PM EDT
Nautical Twilight 6:41 AM EDT 8:40 PM EDT
Astronomical Twilight 6:07 AM EDT 9:14 PM EDT
Moon 10:04 AM EDT (3/16) No Moon Set
Length of Visible Light 12h 54m
Length of Day
11h 58m
Waxing Crescent, 23% of the Moon is Illuminated
Mar 16
Waxing Crescent
Mar 19
First Quarter
Mar 27
Full
Apr 3
Last Quarter
Apr 10
New

Hourly Weather History & Observations

Time (EDT) Temp. Windchill Dew Point Humidity Pressure Visibility Wind Dir Wind Speed Gust Speed Precip Events Conditions
12:14 AM 30.2 °F 21.9 °F - N/A% 29.86 in 3.0 mi East 9.2 mph - 0.01 in Snow Light Snow
12:45 AM 30.2 °F 23.4 °F - N/A% 29.85 in 2.5 mi ENE 6.9 mph - 0.01 in Snow Light Snow
12:53 AM 30.0 °F 21.1 °F - N/A% 29.87 in 2.0 mi ENE 10.4 mph - 0.01 in Snow Light Snow
1:53 AM 28.9 °F 20.4 °F - N/A% 29.87 in 3.0 mi ENE 9.2 mph - 0.00 in Snow Light Snow
2:01 AM 28.4 °F 20.4 °F - N/A% 29.84 in 2.5 mi ENE 8.1 mph - 0.00 in Snow Light Snow
2:12 AM 28.4 °F 21.2 °F - N/A% 29.84 in 1.5 mi ENE 6.9 mph - 0.00 in Snow Light Snow
2:53 AM 28.9 °F 20.4 °F - N/A% 29.85 in 1.2 mi ENE 9.2 mph - 0.01 in Snow Light Snow
3:19 AM 28.4 °F 19.7 °F - N/A% 29.83 in 1.0 mi ENE 9.2 mph - 0.01 in Snow Light Snow
3:31 AM 28.4 °F 19.1 °F - N/A% 29.82 in 1.5 mi ENE 10.4 mph - 0.02 in Snow Light Snow
3:40 AM 28.4 °F 18.5 °F - N/A% 29.81 in 2.0 mi ENE 11.5 mph - 0.02 in Snow Light Snow
3:50 AM 28.4 °F 19.1 °F - N/A% 29.81 in 4.0 mi ENE 10.4 mph 18.4 mph N/A Snow Light Snow
3:53 AM 28.0 °F 18.6 °F - N/A% 29.83 in 5.0 mi ENE 10.4 mph - 0.02 in Snow Light Snow
4:19 AM 28.4 °F 20.4 °F - N/A% 29.80 in 2.0 mi ENE 8.1 mph - 0.00 in Snow Light Snow
4:27 AM 28.4 °F 20.4 °F - N/A% 29.80 in 1.2 mi NE 8.1 mph - 0.00 in Snow Light Snow
4:36 AM 28.4 °F 20.4 °F - N/A% 29.81 in 1.0 mi NE 8.1 mph - 0.01 in Snow Light Snow
4:53 AM 28.0 °F 21.7 °F - N/A% 29.82 in 1.0 mi ENE 5.8 mph - 0.02 in Snow Light Snow
5:24 AM 28.4 °F 19.7 °F - N/A% 29.80 in 2.0 mi NE 9.2 mph - 0.01 in Snow Light Snow
5:38 AM 28.4 °F 19.7 °F - N/A% 29.80 in 3.0 mi ENE 9.2 mph - 0.01 in Snow Light Snow
5:53 AM 28.0 °F 18.1 °F - N/A% 29.81 in 4.0 mi ENE 11.5 mph - 0.01 in Snow Light Snow
6:53 AM 28.0 °F 18.6 °F - N/A% 29.81 in 5.0 mi NE 10.4 mph - 0.00 in Snow Light Snow
7:11 AM 28.4 °F 19.1 °F 26.6 °F 93% 29.78 in 4.0 mi ENE 10.4 mph - 0.00 in Snow Light Snow
7:53 AM 28.0 °F 20.0 °F 26.6 °F 94% 29.80 in 1.2 mi ENE 8.1 mph - 0.01 in Snow Light Snow
8:00 AM 26.6 °F 16.8 °F 24.8 °F 93% 29.78 in 0.8 mi ENE 10.4 mph - 0.00 in Snow Light Snow
8:35 AM 26.6 °F 17.5 °F 24.8 °F 93% 29.79 in 1.2 mi ENE 9.2 mph - 0.01 in Snow Light Snow
8:42 AM 26.6 °F 17.5 °F 24.8 °F 93% 29.79 in 1.5 mi ENE 9.2 mph - 0.01 in Snow Light Snow
8:53 AM 27.0 °F 18.7 °F 24.8 °F 92% 29.82 in 1.8 mi ENE 8.1 mph - 0.01 in Snow Light Snow
8:59 AM 26.6 °F 17.5 °F - N/A% 29.79 in 2.0 mi East 9.2 mph - 0.00 in Snow Light Snow
9:07 AM 26.6 °F 19.1 °F - N/A% 29.79 in 1.8 mi ENE 6.9 mph - 0.00 in Snow Light Snow
9:20 AM 26.6 °F 16.2 °F 26.6 °F 100% 29.78 in 2.0 mi ENE 11.5 mph - 0.00 in Snow Light Snow
9:31 AM 26.6 °F 16.8 °F 26.6 °F 100% 29.78 in 3.0 mi ENE 10.4 mph - 0.00 in Snow Light Snow
9:37 AM 26.6 °F 17.5 °F 26.6 °F 100% 29.79 in 3.0 mi ENE 9.2 mph - 0.00 in Snow Light Snow
9:45 AM 26.6 °F 17.5 °F 26.6 °F 100% 29.79 in 4.0 mi ENE 9.2 mph - 0.00 in Snow Light Snow
9:53 AM 27.0 °F 18.0 °F 26.6 °F 99% 29.81 in 3.0 mi ENE 9.2 mph - 0.00 in Snow Light Snow
10:02 AM 28.4 °F 20.4 °F 24.8 °F 86% 29.79 in 2.5 mi NE 8.1 mph - 0.00 in Snow Light Snow
10:22 AM 28.4 °F 19.7 °F 24.8 °F 86% 29.79 in 4.0 mi NE 9.2 mph - 0.01 in Snow Light Snow
10:53 AM 28.0 °F 18.6 °F 24.8 °F 88% 29.82 in 9.0 mi NNE 10.4 mph - 0.01 in   Overcast
11:53 AM 28.0 °F 19.3 °F 24.8 °F 88% 29.82 in 7.0 mi NNE 9.2 mph - N/A   Overcast
12:53 PM 28.0 °F 18.1 °F 24.8 °F 88% 29.85 in 7.0 mi NNE 11.5 mph - N/A   Overcast
1:53 PM 28.9 °F 20.4 °F 24.8 °F 84% 29.88 in 8.0 mi North 9.2 mph - N/A   Overcast
2:53 PM 30.9 °F 21.7 °F 30.9 °F 100% 29.89 in 10.0 mi North 11.5 mph - N/A   Overcast
3:03 PM 30.2 °F 21.9 °F 30.2 °F 100% 29.87 in 10.0 mi North 9.2 mph - N/A   Overcast
3:53 PM 32.0 °F 22.5 °F 32.0 °F 100% 29.90 in 10.0 mi North 12.7 mph - N/A   Overcast
4:53 PM 32.0 °F 24.8 °F 32.0 °F 100% 29.92 in 10.0 mi North 8.1 mph - N/A   Overcast
5:53 PM 32.0 °F 26.4 °F 30.9 °F 96% 29.95 in 10.0 mi NNE 5.8 mph - N/A   Overcast
6:27 PM 32.0 °F 28.7 °F 30.2 °F 93% 29.94 in 10.0 mi NE 3.5 mph - N/A   Overcast
6:53 PM 30.9 °F 27.5 °F 30.0 °F 96% 29.97 in 10.0 mi NE 3.5 mph - N/A   Overcast
7:53 PM 30.9 °F - 30.0 °F 96% 29.99 in 10.0 mi Calm Calm - N/A   Overcast
8:30 PM 30.2 °F - 30.2 °F 100% 29.97 in 10.0 mi Calm Calm - N/A   Overcast
8:53 PM 30.0 °F - 30.0 °F 100% 30.01 in 10.0 mi Calm Calm - N/A   Overcast
9:53 PM 30.9 °F 27.5 °F 30.0 °F 96% 30.03 in 10.0 mi NW 3.5 mph - N/A   Overcast
10:32 PM 30.2 °F - 28.4 °F 93% 30.00 in 10.0 mi Calm Calm - N/A   Overcast
10:53 PM 30.0 °F - 27.0 °F 88% 30.04 in 10.0 mi Calm Calm - N/A   Overcast
11:53 PM 28.9 °F - 27.0 °F 92% 30.05 in 10.0 mi Calm Calm - N/A   Overcast